Location: Karcze
(52.0945°N, 22.4786°E)
Time: 12:33:33
(UTC+00:00)

Cosmos 2221 Rocket - Pass Details

Date: 14 July 2020
Orbit: 619 x 649 km, 82.5° (Epoch: 07 August)

Event Time Altitude Azimuth Distance (km) Brightness Sun altitude
Rises 00:30:54 0° 348° (NNW) 2,917 7.9 -12.1°
Reaches altitude 10° 00:33:08 10° 348° (NNW) 2,003 7.0 -12.0°
Maximum altitude 00:37:35 85° 261° (W) 630 3.5 -11.6°
Drops below altitude 10° 00:41:59 10° 173° (S) 1,984 5.7 -11.3°
Enters shadow 00:41:59 10° 173° (S) 1,987 5.7 -11.3°
